Weather History for Chester, CT

Change the Weather History Date:

Wednesday, October 30, 2013

  Actual Average (KHVN) Record (KHVN)
Temperature  
Mean Temperature 47 °F -  
Max Temperature 57 °F 55 °F 76 °F (1971)
Min Temperature 37 °F 40 °F 30 °F (1983)
Degree Days  
Heating Degree Days 18    
Moisture  
Dew Point 38 °F    
Average Humidity 72    
Maximum Humidity 100    
Minimum Humidity 54    
Precipitation  
Precipitation 0.00 in - - ()
Sea Level Pressure  
Sea Level Pressure 30.27 in    
Wind  
Wind Speed 1 mph (SW)    
Max Wind Speed 9 mph    
Max Gust Speed -    
Visibility 10 miles    
Events      
Averages and records for this station are not official NWS values.
T = Trace of Precipitation, MM = Missing Value Source: NWS Daily Summary

Daily Weather History Graph

Daily Weather History Graph

Search for Another Location

Airport:

Trip Planner

Search our weather history database for the weather conditions in past years. The results will help you decide how hot, cold, wet, or windy it might be!

Date:

Astronomy

Oct. 30, 2013 Rise Set
Actual Time 7:19 AM EDT 5:47 PM EDT
Civil Twilight 6:50 AM EDT 6:15 PM EDT
Nautical Twilight 6:18 AM EDT 6:48 PM EDT
Astronomical Twilight 5:46 AM EDT 7:20 PM EDT
Moon 3:02 AM EDT (10/30) 3:33 PM EDT (10/30)
Length of Visible Light 11h 25m
Length of Day
10h 27m
Waning Crescent, 17% of the Moon is Illuminated
Oct 30
Waning Crescent
Nov 3
New
Nov 10
First Quarter
Nov 17
Full
Nov 25
Last Quarter

Hourly Weather History & Observations

Time (EDT) Temp. Windchill Dew Point Humidity Pressure Visibility Wind Dir Wind Speed Gust Speed Precip Events Conditions
12:15 AM 39.2 °F - 26.6 °F 61% 30.36 in 10.0 mi Calm Calm - N/A   Clear
12:35 AM 39.2 °F - 26.6 °F 61% 30.35 in 10.0 mi Calm Calm - N/A   Clear
12:55 AM 37.4 °F - 28.4 °F 70% 30.34 in 10.0 mi Calm Calm - N/A   Clear
1:15 AM 37.4 °F - 28.4 °F 70% 30.34 in 10.0 mi Calm Calm - N/A   Clear
1:35 AM 37.4 °F - 28.4 °F 70% 30.33 in 10.0 mi Calm Calm - N/A   Clear
1:55 AM 39.2 °F - 26.6 °F 61% 30.33 in 10.0 mi Calm Calm - N/A   Mostly Cloudy
2:15 AM 39.2 °F - 26.6 °F 61% 30.32 in 10.0 mi Calm Calm - N/A   Scattered Clouds
2:35 AM 39.2 °F - 28.4 °F 65% 30.33 in 10.0 mi Calm Calm - N/A   Partly Cloudy
2:55 AM 39.2 °F - 28.4 °F 65% 30.32 in 10.0 mi Calm Calm - N/A   Partly Cloudy
3:15 AM 39.2 °F - 26.6 °F 61% 30.32 in 10.0 mi Calm Calm - N/A   Partly Cloudy
3:35 AM 37.4 °F - 28.4 °F 70% 30.32 in 10.0 mi Calm Calm - N/A   Partly Cloudy
3:55 AM 39.2 °F - 28.4 °F 65% 30.31 in 10.0 mi Calm Calm - N/A   Clear
4:15 AM 39.2 °F - 28.4 °F 65% 30.31 in 10.0 mi Calm Calm - N/A   Clear
4:35 AM 39.2 °F - 28.4 °F 65% 30.31 in 10.0 mi Calm Calm - N/A   Clear
4:55 AM 39.2 °F - 30.2 °F 70% 30.30 in 10.0 mi Calm Calm - N/A   Clear
5:15 AM 39.2 °F - 32.0 °F 75% 30.29 in 10.0 mi Calm Calm - N/A   Clear
5:35 AM 39.2 °F - 30.2 °F 70% 30.30 in 10.0 mi Calm Calm - N/A   Mostly Cloudy
5:55 AM 39.2 °F - 30.2 °F 70% 30.29 in 10.0 mi Calm Calm - N/A   Overcast
6:15 AM 39.2 °F - 30.2 °F 70% 30.29 in 10.0 mi Calm Calm - N/A   Overcast
6:35 AM 39.2 °F - 32.0 °F 75% 30.29 in 10.0 mi Calm Calm - N/A   Mostly Cloudy
6:55 AM 37.4 °F - 32.0 °F 81% 30.29 in 10.0 mi Calm Calm - N/A   Scattered Clouds
7:15 AM 37.4 °F - 32.0 °F 81% 30.29 in 10.0 mi Calm Calm - N/A   Partly Cloudy
7:35 AM 37.4 °F - 32.0 °F 81% 30.29 in 10.0 mi Calm Calm - N/A   Clear
7:55 AM 39.2 °F - 32.0 °F 75% 30.30 in 10.0 mi Calm Calm - N/A   Partly Cloudy
8:15 AM 41.0 °F - 32.0 °F 70% 30.30 in 10.0 mi Calm Calm - N/A   Partly Cloudy
8:35 AM 44.6 °F - 33.8 °F 66% 30.30 in 10.0 mi Calm Calm - N/A   Partly Cloudy
8:55 AM 44.6 °F - 33.8 °F 66% 30.30 in 10.0 mi Calm Calm - N/A   Partly Cloudy
9:15 AM 46.4 °F - 33.8 °F 62% 30.30 in 10.0 mi Calm Calm - N/A   Clear
9:35 AM 48.2 °F - 35.6 °F 62% 30.30 in 10.0 mi SSW 3.5 mph - N/A   Scattered Clouds
9:55 AM 51.8 °F - 35.6 °F 54% 30.29 in 10.0 mi West 4.6 mph - N/A   Mostly Cloudy
10:15 AM 51.8 °F - 37.4 °F 58% 30.29 in 10.0 mi SSW 3.5 mph - N/A   Overcast
10:35 AM 53.6 °F - 37.4 °F 54% 30.29 in 10.0 mi SSW 5.8 mph - N/A   Mostly Cloudy
10:55 AM 53.6 °F - 37.4 °F 54% 30.29 in 10.0 mi SW 4.6 mph - N/A   Mostly Cloudy
11:15 AM 53.6 °F - 39.2 °F 58% 30.29 in 10.0 mi WSW 5.8 mph - N/A   Mostly Cloudy
11:35 AM 55.4 °F - 39.2 °F 54% 30.28 in 10.0 mi SW 9.2 mph - N/A   Mostly Cloudy
11:55 AM 55.4 °F - 41.0 °F 58% 30.28 in 10.0 mi West 6.9 mph - N/A   Mostly Cloudy
12:15 PM 57.2 °F - 42.8 °F 59% 30.27 in 10.0 mi SW 8.1 mph - N/A   Mostly Cloudy
12:35 PM 55.4 °F - 42.8 °F 63% 30.26 in 10.0 mi WSW 8.1 mph - N/A   Mostly Cloudy
12:55 PM 57.2 °F - 42.8 °F 59% 30.25 in 10.0 mi West 5.8 mph - N/A   Overcast
1:15 PM 55.4 °F - 42.8 °F 63% 30.25 in 10.0 mi WSW 6.9 mph - N/A   Overcast
1:35 PM 55.4 °F - 44.6 °F 67% 30.24 in 10.0 mi WSW 6.9 mph - N/A   Overcast
1:55 PM 55.4 °F - 44.6 °F 67% 30.23 in 10.0 mi WSW 5.8 mph - N/A   Mostly Cloudy
2:15 PM 55.4 °F - 44.6 °F 67% 30.23 in 10.0 mi SW 6.9 mph - N/A   Mostly Cloudy
2:35 PM 55.4 °F - 44.6 °F 67% 30.22 in 10.0 mi SSW 4.6 mph - N/A   Mostly Cloudy
2:55 PM 55.4 °F - 44.6 °F 67% 30.21 in 10.0 mi SW 4.6 mph - N/A   Mostly Cloudy
3:15 PM 55.4 °F - 44.6 °F 67% 30.21 in 10.0 mi SW 4.6 mph - N/A   Mostly Cloudy
3:35 PM 55.4 °F - 44.6 °F 67% 30.21 in 10.0 mi SW 5.8 mph - N/A   Overcast
3:55 PM 55.4 °F - 44.6 °F 67% 30.21 in 10.0 mi WSW 5.8 mph - N/A   Mostly Cloudy
4:15 PM 55.4 °F - 44.6 °F 67% 30.21 in 10.0 mi WSW 3.5 mph - N/A   Mostly Cloudy
4:35 PM 55.4 °F - 44.6 °F 67% 30.21 in 10.0 mi Calm Calm - N/A   Overcast
4:55 PM 55.4 °F - 44.6 °F 67% 30.21 in 10.0 mi Calm Calm - N/A   Overcast
5:15 PM 55.4 °F - 44.6 °F 67% 30.21 in 10.0 mi Calm Calm - N/A   Overcast
5:35 PM 55.4 °F - 44.6 °F 67% 30.21 in 10.0 mi Calm Calm - N/A   Overcast
5:55 PM 55.4 °F - 44.6 °F 67% 30.21 in 10.0 mi Calm Calm - N/A   Overcast
6:15 PM 53.6 °F - 46.4 °F 77% 30.21 in 10.0 mi Calm Calm - N/A   Overcast
6:35 PM 51.8 °F - 46.4 °F 82% 30.22 in 10.0 mi SSW 3.5 mph - N/A   Mostly Cloudy
6:55 PM 51.8 °F - 46.4 °F 82% 30.23 in 10.0 mi Calm Calm - N/A   Mostly Cloudy
7:15 PM 51.8 °F - 46.4 °F 82% 30.23 in 10.0 mi Calm Calm - N/A   Mostly Cloudy
8:35 PM 48.2 °F - 46.4 °F 93% 30.23 in 10.0 mi Calm Calm - N/A   Clear
8:55 PM 46.4 °F - 44.6 °F 93% 30.23 in 10.0 mi Calm Calm - N/A   Clear
9:15 PM 46.4 °F - 44.6 °F 93% 30.24 in 10.0 mi Calm Calm - N/A   Clear
9:35 PM 46.4 °F - 44.6 °F 93% 30.24 in 9.0 mi Calm Calm - N/A   Clear
9:55 PM 44.6 °F - 44.6 °F 100% 30.24 in 8.0 mi Calm Calm - N/A   Clear
10:15 PM 46.4 °F 44.3 °F 44.6 °F 93% 30.24 in 8.0 mi SSW 4.6 mph - N/A   Clear
10:35 PM 46.4 °F - 46.4 °F 100% 30.23 in 10.0 mi Calm Calm - N/A   Clear
10:55 PM 42.8 °F - 42.8 °F 100% 30.24 in 7.0 mi Calm Calm - N/A   Clear
11:15 PM 44.6 °F 43.1 °F 44.6 °F 100% 30.25 in 5.0 mi NNW 3.5 mph - N/A   Clear
11:35 PM 44.6 °F - 44.6 °F 100% 30.24 in 5.0 mi Calm Calm - N/A   Clear
11:55 PM 44.6 °F - 44.6 °F 100% 30.24 in 3.0 mi Calm Calm - N/A   Scattered Clouds